IBE1VH LEXJ-LIPE

Flight info

Callsign IBE1VH
Flight time 1h 47m
Altitude 36000
Route BLV DCT PPN DCT LATEK DCT GONUP DCT TOU DCT GAI/N0449F350 DCT DEGOL DCT FJR DCT SODRI DCT BTA/N0447F360 DCT MOULE/N0388F190 L146 ELB/N0382F180 L12 LOMED
Aircraft A320/M-SDE3FGHIRWY/LB1

Departure

Time 2026-05-08 13:30
Airport Seve Ballesteros-Santander Airport (LEXJ)

Arrival

Time 2026-05-08 15:17
Airport Bologna Guglielmo Marconi Airport (LIPE)
Time Latitude Longitude Altitude Speed Heading
2026-05-08 13:06 43.42383 -3.82295 21 ft 0 kts 233°
2026-05-08 13:19 43.42386 -3.82304 19 ft 1 kts 298°
2026-05-08 13:19 43.42392 -3.82302 -8 ft 1 kts
2026-05-08 13:19 43.42406 -3.82293 8 ft 4 kts 24°
2026-05-08 13:19 43.42413 -3.82239 23 ft 8 kts 107°
2026-05-08 13:20 43.42394 -3.82162 19 ft 8 kts 109°
2026-05-08 13:20 43.42412 -3.82102 20 ft 10 kts 23°
2026-05-08 13:20 43.42502 -3.82059 19 ft 17 kts 24°
2026-05-08 13:20 43.42512 -3.81907 20 ft 20 kts 108°
2026-05-08 13:21 43.42464 -3.81728 19 ft 19 kts 112°
2026-05-08 13:21 43.42420 -3.81565 19 ft 17 kts 110°
2026-05-08 13:21 43.42385 -3.81432 21 ft 14 kts 110°
2026-05-08 13:21 43.42392 -3.81344 20 ft 7 kts 39°
2026-05-08 13:22 43.42409 -3.81334 19 ft 0 kts 20°
2026-05-08 13:27 43.42424 -3.81327 21 ft 6 kts 20°
2026-05-08 13:28 43.42480 -3.81297 24 ft 10 kts 26°
2026-05-08 13:28 43.42491 -3.81192 22 ft 15 kts 111°
2026-05-08 13:28 43.42448 -3.81037 20 ft 20 kts 110°
2026-05-08 13:28 43.42395 -3.80840 20 ft 24 kts 110°
2026-05-08 13:29 43.42320 -3.80676 19 ft 14 kts 110°
2026-05-08 13:29 43.42351 -3.80672 18 ft 6 kts 293°
2026-05-08 13:29 43.42367 -3.80737 20 ft 11 kts 289°
2026-05-08 13:29 43.42452 -3.81044 21 ft 64 kts 291°
2026-05-08 13:30 43.42676 -3.81878 22 ft 118 kts 289°
2026-05-08 13:30 43.43015 -3.83136 213 ft 152 kts 290°
2026-05-08 13:30 43.43382 -3.84545 843 ft 158 kts 290°
2026-05-08 13:30 43.43776 -3.85974 1485 ft 166 kts 290°
2026-05-08 13:31 43.44212 -3.87542 1941 ft 183 kts 289°
2026-05-08 13:31 43.44670 -3.89191 2395 ft 188 kts 288°
2026-05-08 13:31 43.45190 -3.90861 2805 ft 193 kts 300°
2026-05-08 13:31 43.46253 -3.92092 3111 ft 215 kts 336°
2026-05-08 13:32 43.47797 -3.92178 3434 ft 234 kts 19°
2026-05-08 13:32 43.49079 -3.90821 4027 ft 238 kts 61°
2026-05-08 13:32 43.49456 -3.88653 4726 ft 235 kts 102°
2026-05-08 13:32 43.48849 -3.86608 5432 ft 232 kts 125°
2026-05-08 13:33 43.48033 -3.84681 6150 ft 236 kts 116°
2026-05-08 13:33 43.47756 -3.82423 6810 ft 248 kts 88°
2026-05-08 13:33 43.48232 -3.80052 7231 ft 266 kts 73°
2026-05-08 13:33 43.48868 -3.77567 7621 ft 284 kts 74°
2026-05-08 13:34 43.49505 -3.74941 8215 ft 292 kts 75°
2026-05-08 13:34 43.50145 -3.72269 9001 ft 295 kts 76°
2026-05-08 13:34 43.50505 -3.69510 9764 ft 292 kts 95°
2026-05-08 13:34 43.50336 -3.66696 10275 ft 303 kts 100°
2026-05-08 13:35 43.50112 -3.63701 10456 ft 326 kts 99°
2026-05-08 13:35 43.49873 -3.60533 10623 ft 347 kts 99°
2026-05-08 13:35 43.49629 -3.57184 11122 ft 355 kts 98°
2026-05-08 13:35 43.49389 -3.53782 11804 ft 359 kts 98°
2026-05-08 13:36 43.49149 -3.50352 12554 ft 361 kts 98°
2026-05-08 13:36 43.48903 -3.46897 13237 ft 364 kts 98°
2026-05-08 13:36 43.48651 -3.43409 13902 ft 367 kts 98°
2026-05-08 13:36 43.48395 -3.39905 14494 ft 369 kts 99°
2026-05-08 13:37 43.47902 -3.36435 15053 ft 369 kts 109°
2026-05-08 13:37 43.46974 -3.33141 15600 ft 370 kts 119°
2026-05-08 13:37 43.45713 -3.30051 16154 ft 372 kts 122°
2026-05-08 13:37 43.44412 -3.26954 16694 ft 375 kts 122°
2026-05-08 13:38 43.43103 -3.23822 17235 ft 379 kts 122°
2026-05-08 13:38 43.41787 -3.20664 17756 ft 382 kts 122°
2026-05-08 13:38 43.40459 -3.17484 18261 ft 385 kts 122°
2026-05-08 13:38 43.39118 -3.14275 18713 ft 388 kts 122°
2026-05-08 13:39 43.37770 -3.11045 19168 ft 391 kts 122°
2026-05-08 13:39 43.36411 -3.07794 19668 ft 393 kts 122°
2026-05-08 13:39 43.35044 -3.04529 20107 ft 395 kts 122°
2026-05-08 13:39 43.33664 -3.01248 20572 ft 398 kts 123°
2026-05-08 13:40 43.32276 -2.97958 21026 ft 400 kts 123°
2026-05-08 13:40 43.30877 -2.94648 21472 ft 402 kts 123°
2026-05-08 13:40 43.29455 -2.91327 21914 ft 404 kts 123°
2026-05-08 13:40 43.28283 -2.87801 22344 ft 411 kts 108°
2026-05-08 13:41 43.27912 -2.83940 22748 ft 420 kts 91°
2026-05-08 13:41 43.28269 -2.79925 23142 ft 426 kts 84°
2026-05-08 13:41 43.28727 -2.75899 23537 ft 428 kts 84°
2026-05-08 13:41 43.29190 -2.71863 23884 ft 429 kts 84°
2026-05-08 13:42 43.29657 -2.67807 24225 ft 431 kts 85°
2026-05-08 13:42 43.30122 -2.63737 24531 ft 433 kts 85°
2026-05-08 13:42 43.30584 -2.59647 24869 ft 434 kts 85°
2026-05-08 13:42 43.31044 -2.55539 25231 ft 436 kts 85°
2026-05-08 13:43 43.31502 -2.51415 25583 ft 437 kts 85°
2026-05-08 13:43 43.31960 -2.47287 25912 ft 438 kts 85°
2026-05-08 13:43 43.32415 -2.43147 26259 ft 439 kts 85°
2026-05-08 13:43 43.32869 -2.38996 26598 ft 440 kts 85°
2026-05-08 13:44 43.33323 -2.34836 26915 ft 441 kts 85°
2026-05-08 13:44 43.33778 -2.30663 27223 ft 442 kts 85°
2026-05-08 13:44 43.34235 -2.26476 27482 ft 444 kts 85°
2026-05-08 13:44 43.34691 -2.22277 27750 ft 446 kts 85°
2026-05-08 13:45 43.35148 -2.18057 28036 ft 447 kts 85°
2026-05-08 13:45 43.35604 -2.13827 28331 ft 448 kts 85°
2026-05-08 13:45 43.36056 -2.09645 28618 ft 449 kts 85°
2026-05-08 13:45 43.36517 -2.05344 28963 ft 448 kts 85°
2026-05-08 13:46 43.36963 -2.01170 29388 ft 446 kts 86°
2026-05-08 13:46 43.37413 -1.96908 29834 ft 444 kts 86°
2026-05-08 13:46 43.37853 -1.92715 30202 ft 442 kts 86°
2026-05-08 13:46 43.38293 -1.88539 30480 ft 442 kts 85°
2026-05-08 13:47 43.38727 -1.84412 30766 ft 442 kts 85°
2026-05-08 13:47 43.39164 -1.80237 31062 ft 441 kts 85°
2026-05-08 13:47 43.39601 -1.76064 31364 ft 440 kts 85°
2026-05-08 13:47 43.40034 -1.71905 31667 ft 440 kts 86°
2026-05-08 13:48 43.40466 -1.67745 31973 ft 439 kts 86°
2026-05-08 13:48 43.40896 -1.63594 32278 ft 438 kts 86°
2026-05-08 13:48 43.41320 -1.59446 32583 ft 437 kts 86°
2026-05-08 13:48 43.41741 -1.55296 32895 ft 437 kts 86°
2026-05-08 13:49 43.42162 -1.51162 33156 ft 436 kts 86°
2026-05-08 13:49 43.42584 -1.47026 33390 ft 437 kts 86°
2026-05-08 13:49 43.43003 -1.42892 33675 ft 436 kts 86°
2026-05-08 13:49 43.43419 -1.38759 33973 ft 436 kts 86°
2026-05-08 13:50 43.43836 -1.34633 34210 ft 435 kts 86°
2026-05-08 13:50 43.44252 -1.30506 34427 ft 436 kts 86°
2026-05-08 13:50 43.44526 -1.27768 34558 ft 437 kts 86°
2026-05-08 13:50 43.45072 -1.22221 34799 ft 438 kts 86°
2026-05-08 13:51 43.45341 -1.19468 34921 ft 439 kts 86°
2026-05-08 13:51 43.45750 -1.15301 35107 ft 439 kts 86°
2026-05-08 13:51 43.46160 -1.11125 35226 ft 441 kts 86°
2026-05-08 13:51 43.46572 -1.06922 35367 ft 443 kts 86°
2026-05-08 13:52 43.46985 -1.02711 35529 ft 445 kts 86°
2026-05-08 13:52 43.47400 -0.98483 35700 ft 445 kts 86°
2026-05-08 13:52 43.47811 -0.94259 35869 ft 446 kts 86°
2026-05-08 13:52 43.48223 -0.90007 35923 ft 448 kts 86°
2026-05-08 13:53 43.49039 -0.81482 35922 ft 449 kts 86°
2026-05-08 13:53 43.49847 -0.72947 35922 ft 450 kts 86°
2026-05-08 13:54 43.50661 -0.64385 35920 ft 451 kts 86°
2026-05-08 13:54 43.51467 -0.55815 35921 ft 451 kts 86°
2026-05-08 13:55 43.52265 -0.47244 35925 ft 451 kts 86°
2026-05-08 13:56 43.53436 -0.34434 35926 ft 451 kts 86°
2026-05-08 13:56 43.54221 -0.25795 35928 ft 451 kts 86°
2026-05-08 13:57 43.54990 -0.17265 35927 ft 451 kts 86°
2026-05-08 13:57 43.55761 -0.08673 35927 ft 451 kts 86°
2026-05-08 13:58 43.56520 -0.00089 35908 ft 451 kts 86°
2026-05-08 13:58 43.57271 0.08506 35904 ft 452 kts 86°
2026-05-08 13:59 43.58019 0.17116 35911 ft 452 kts 86°
2026-05-08 13:59 43.58764 0.25731 35916 ft 453 kts 86°
2026-05-08 14:00 43.59505 0.34358 35923 ft 453 kts 86°
2026-05-08 14:00 43.60240 0.42989 35902 ft 453 kts 86°
2026-05-08 14:01 43.60968 0.51628 35907 ft 454 kts 86°
2026-05-08 14:01 43.61687 0.60295 35912 ft 455 kts 86°
2026-05-08 14:02 43.62408 0.68963 35919 ft 455 kts 86°
2026-05-08 14:02 43.63118 0.77587 35909 ft 455 kts 86°
2026-05-08 14:03 43.63812 0.86281 35908 ft 456 kts 86°
2026-05-08 14:03 43.64498 0.94993 35919 ft 457 kts 87°
2026-05-08 14:04 43.65192 1.03720 35936 ft 457 kts 86°
2026-05-08 14:04 43.65881 1.12457 35940 ft 457 kts 87°
2026-05-08 14:05 43.66556 1.21218 35925 ft 458 kts 87°
2026-05-08 14:05 43.67234 1.29988 35927 ft 460 kts 86°
2026-05-08 14:06 43.67908 1.38775 35930 ft 461 kts 87°
2026-05-08 14:06 43.68569 1.47525 35936 ft 461 kts 87°
2026-05-08 14:07 43.69226 1.56340 35924 ft 462 kts 87°
2026-05-08 14:07 43.69884 1.65184 35921 ft 463 kts 87°
2026-05-08 14:08 43.70532 1.74049 35930 ft 464 kts 87°
2026-05-08 14:08 43.71173 1.82926 35935 ft 464 kts 87°
2026-05-08 14:09 43.71808 1.91819 35930 ft 465 kts 87°
2026-05-08 14:09 43.72436 2.00731 35936 ft 466 kts 87°
2026-05-08 14:10 43.73057 2.09663 35935 ft 467 kts 87°
2026-05-08 14:10 43.73674 2.18555 35951 ft 468 kts 87°
2026-05-08 14:11 43.74288 2.27519 35956 ft 468 kts 87°
2026-05-08 14:11 43.74897 2.36498 35945 ft 470 kts 87°
2026-05-08 14:12 43.75497 2.45505 35963 ft 471 kts 87°
2026-05-08 14:12 43.76093 2.54549 35967 ft 472 kts 87°
2026-05-08 14:13 43.76681 2.63604 35979 ft 473 kts 87°
2026-05-08 14:13 43.77264 2.72663 35966 ft 473 kts 87°
2026-05-08 14:14 43.77808 2.81752 35979 ft 474 kts 91°
2026-05-08 14:14 43.77098 2.90726 35988 ft 468 kts 107°
2026-05-08 14:15 43.75545 2.99474 35990 ft 468 kts 107°
2026-05-08 14:15 43.74003 3.08235 35994 ft 469 kts 107°
2026-05-08 14:16 43.72454 3.17017 35996 ft 471 kts 107°
2026-05-08 14:16 43.70890 3.25816 36010 ft 472 kts 107°
2026-05-08 14:17 43.69307 3.34624 36010 ft 472 kts 107°
2026-05-08 14:17 43.67730 3.43376 36024 ft 473 kts 107°
2026-05-08 14:18 43.66139 3.52189 36030 ft 473 kts 107°
2026-05-08 14:18 43.64544 3.61001 36039 ft 473 kts 107°
2026-05-08 14:19 43.62938 3.69806 36039 ft 473 kts 107°
2026-05-08 14:19 43.61323 3.78604 36040 ft 473 kts 107°
2026-05-08 14:20 43.59702 3.87399 36025 ft 474 kts 107°
2026-05-08 14:20 43.58069 3.96213 36040 ft 475 kts 106°
2026-05-08 14:21 43.56994 4.05225 36042 ft 477 kts 101°
2026-05-08 14:21 43.56012 4.14283 36041 ft 478 kts 101°
2026-05-08 14:22 43.55012 4.23346 36017 ft 478 kts 101°
2026-05-08 14:22 43.53999 4.32420 36014 ft 479 kts 101°
2026-05-08 14:23 43.52979 4.41498 36013 ft 479 kts 101°
2026-05-08 14:23 43.51952 4.50586 36012 ft 480 kts 101°
2026-05-08 14:24 43.50926 4.59668 36000 ft 480 kts 101°
2026-05-08 14:24 43.49886 4.68762 36005 ft 481 kts 101°
2026-05-08 14:25 43.48837 4.77808 36014 ft 482 kts 101°
2026-05-08 14:25 43.47780 4.86922 36015 ft 482 kts 101°
2026-05-08 14:26 43.46723 4.96036 36011 ft 483 kts 101°
2026-05-08 14:26 43.45648 5.05175 36008 ft 484 kts 101°
2026-05-08 14:27 43.44557 5.14318 36012 ft 485 kts 102°
2026-05-08 14:27 43.43457 5.23483 36018 ft 486 kts 102°
2026-05-08 14:28 43.42356 5.32657 36019 ft 486 kts 102°
2026-05-08 14:28 43.41247 5.41820 36008 ft 486 kts 102°
2026-05-08 14:29 43.40127 5.51006 36008 ft 487 kts 102°
2026-05-08 14:29 43.39001 5.60197 36007 ft 488 kts 102°
2026-05-08 14:30 43.37873 5.69336 36008 ft 488 kts 102°
2026-05-08 14:30 43.36727 5.78527 35995 ft 488 kts 102°
2026-05-08 14:31 43.35570 5.87741 36010 ft 489 kts 102°
2026-05-08 14:31 43.34400 5.96954 36017 ft 490 kts 102°
2026-05-08 14:32 43.32642 6.10804 36004 ft 491 kts 102°
2026-05-08 14:32 43.31459 6.20047 36002 ft 491 kts 102°
2026-05-08 14:33 43.30266 6.29287 36011 ft 492 kts 102°
2026-05-08 14:33 43.29067 6.38544 36012 ft 493 kts 102°
2026-05-08 14:34 43.27855 6.47792 36016 ft 493 kts 102°
2026-05-08 14:34 43.26640 6.57006 36005 ft 494 kts 102°
2026-05-08 14:35 43.25405 6.66286 36008 ft 495 kts 102°
2026-05-08 14:35 43.24163 6.75577 36015 ft 495 kts 102°
2026-05-08 14:36 43.22916 6.84876 36008 ft 496 kts 102°
2026-05-08 14:36 43.21659 6.94178 35997 ft 497 kts 102°
2026-05-08 14:37 43.20394 7.03490 36002 ft 497 kts 103°
2026-05-08 14:37 43.19123 7.12806 36008 ft 498 kts 103°
2026-05-08 14:38 43.17842 7.22121 36015 ft 498 kts 102°
2026-05-08 14:38 43.17489 7.26844 36017 ft 500 kts 89°
2026-05-08 14:38 43.17668 7.31594 36018 ft 500 kts 87°
2026-05-08 14:39 43.18035 7.39498 36013 ft 500 kts 86°
2026-05-08 14:39 43.18482 7.49021 36016 ft 501 kts 87°
2026-05-08 14:40 43.18913 7.58543 36033 ft 501 kts 86°
2026-05-08 14:40 43.19327 7.68080 36015 ft 502 kts 87°
2026-05-08 14:41 43.19724 7.77633 36010 ft 502 kts 87°
2026-05-08 14:41 43.20117 7.87205 36011 ft 503 kts 87°
2026-05-08 14:42 43.20512 7.96786 36013 ft 503 kts 87°
2026-05-08 14:42 43.20901 8.06371 36005 ft 504 kts 87°
2026-05-08 14:43 43.21271 8.15904 36006 ft 504 kts 87°
2026-05-08 14:43 43.21644 8.25511 36008 ft 505 kts 87°
2026-05-08 14:44 43.22003 8.35117 36003 ft 505 kts 87°
2026-05-08 14:44 43.22350 8.44748 36006 ft 505 kts 87°
2026-05-08 14:45 43.22691 8.54374 36013 ft 505 kts 87°
2026-05-08 14:45 43.23026 8.64005 36014 ft 506 kts 87°
2026-05-08 14:46 43.23363 8.73637 36010 ft 506 kts 87°
2026-05-08 14:46 43.23686 8.83274 36015 ft 506 kts 87°
2026-05-08 14:47 43.23994 8.92910 36011 ft 506 kts 87°
2026-05-08 14:47 43.24286 9.02559 36009 ft 506 kts 87°
2026-05-08 14:48 43.24576 9.12209 35999 ft 506 kts 87°
2026-05-08 14:48 43.24871 9.21859 36002 ft 507 kts 87°
2026-05-08 14:49 43.25161 9.31518 36019 ft 507 kts 87°
2026-05-08 14:49 43.25434 9.41175 36019 ft 507 kts 87°
2026-05-08 14:50 43.25695 9.50839 36007 ft 507 kts 87°
2026-05-08 14:50 43.25944 9.60435 36002 ft 507 kts 88°
2026-05-08 14:51 43.26189 9.70104 35997 ft 507 kts 88°
2026-05-08 14:51 43.26432 9.79782 36000 ft 507 kts 88°
2026-05-08 14:52 43.26776 9.94286 35998 ft 507 kts 88°
2026-05-08 14:53 43.26998 10.03976 35999 ft 508 kts 88°
2026-05-08 14:53 43.27213 10.13654 35998 ft 508 kts 88°
2026-05-08 14:54 43.27415 10.23356 35993 ft 508 kts 88°
2026-05-08 14:54 43.27609 10.33044 35989 ft 508 kts 88°
2026-05-08 14:55 43.27793 10.42743 35982 ft 509 kts 88°
2026-05-08 14:55 43.28270 10.52400 35827 ft 506 kts 76°
2026-05-08 14:55 43.29279 10.56930 35154 ft 501 kts 63°
2026-05-08 14:56 43.30943 10.61093 34400 ft 495 kts 49°
2026-05-08 14:56 43.33137 10.64689 33598 ft 488 kts 37°
2026-05-08 14:56 43.35730 10.67625 32793 ft 479 kts 26°
2026-05-08 14:56 43.38604 10.69839 31969 ft 469 kts 16°
2026-05-08 14:57 43.41645 10.71381 31097 ft 466 kts 11°
2026-05-08 14:57 43.44729 10.72815 30178 ft 469 kts 12°
2026-05-08 14:57 43.47838 10.74252 29122 ft 473 kts 12°
2026-05-08 14:57 43.50961 10.75717 28123 ft 475 kts 14°
2026-05-08 14:58 43.54070 10.77197 27434 ft 470 kts 15°
2026-05-08 14:58 43.57140 10.78673 26729 ft 465 kts 15°
2026-05-08 14:58 43.60186 10.80146 26060 ft 461 kts 16°
2026-05-08 14:58 43.63203 10.81603 25405 ft 457 kts 16°
2026-05-08 14:59 43.66196 10.83038 24799 ft 453 kts 17°
2026-05-08 14:59 43.72112 10.85829 23580 ft 446 kts 17°
2026-05-08 14:59 43.75042 10.87204 22878 ft 442 kts 17°
2026-05-08 15:00 43.77941 10.88567 22234 ft 438 kts 17°
2026-05-08 15:00 43.80813 10.89921 21640 ft 434 kts 17°
2026-05-08 15:00 43.83662 10.91270 21031 ft 431 kts 17°
2026-05-08 15:00 43.86491 10.92612 20445 ft 428 kts 17°
2026-05-08 15:01 43.89293 10.93946 19879 ft 424 kts 18°
2026-05-08 15:01 43.92076 10.95272 19330 ft 420 kts 17°
2026-05-08 15:01 43.94827 10.96581 18795 ft 417 kts 17°
2026-05-08 15:01 43.97563 10.97883 18280 ft 414 kts 17°
2026-05-08 15:02 44.00276 10.99178 17705 ft 411 kts 18°
2026-05-08 15:02 44.02963 11.00464 17185 ft 406 kts 18°
2026-05-08 15:02 44.05603 11.01817 16663 ft 402 kts 20°
2026-05-08 15:02 44.08193 11.03248 16173 ft 399 kts 21°
2026-05-08 15:03 44.10744 11.04714 15717 ft 394 kts 22°
2026-05-08 15:03 44.13264 11.06176 15256 ft 390 kts 21°
2026-05-08 15:03 44.15761 11.07616 14920 ft 386 kts 22°
2026-05-08 15:03 44.18237 11.09030 14442 ft 383 kts 22°
2026-05-08 15:04 44.20694 11.10419 13969 ft 379 kts 21°
2026-05-08 15:04 44.23130 11.11788 13491 ft 375 kts 21°
2026-05-08 15:04 44.25535 11.13140 12961 ft 372 kts 21°
2026-05-08 15:04 44.27917 11.14478 12619 ft 362 kts 21°
2026-05-08 15:05 44.30143 11.15733 12305 ft 341 kts 21°
2026-05-08 15:05 44.32294 11.16951 11932 ft 323 kts 22°
2026-05-08 15:05 44.34329 11.18102 11563 ft 309 kts 21°
2026-05-08 15:05 44.36279 11.19206 11174 ft 297 kts 22°
2026-05-08 15:06 44.38205 11.20299 10620 ft 293 kts 22°
2026-05-08 15:06 44.40097 11.21178 10057 ft 289 kts
2026-05-08 15:06 44.42085 11.21226 9501 ft 287 kts 350°
2026-05-08 15:06 44.43974 11.20395 9149 ft 284 kts 332°
2026-05-08 15:07 44.45574 11.18802 8742 ft 284 kts 315°
2026-05-08 15:07 44.46734 11.16574 8325 ft 285 kts 297°
2026-05-08 15:07 44.47628 11.14120 8075 ft 279 kts 297°
2026-05-08 15:07 44.48492 11.11752 7933 ft 268 kts 297°
2026-05-08 15:08 44.49330 11.09450 7684 ft 263 kts 297°
2026-05-08 15:08 44.49886 11.07909 7462 ft 262 kts 297°
2026-05-08 15:08 44.50965 11.04894 7009 ft 261 kts 297°
2026-05-08 15:08 44.51774 11.02622 6682 ft 260 kts 297°
2026-05-08 15:09 44.52579 11.00363 6330 ft 259 kts 297°
2026-05-08 15:09 44.53382 10.98106 5978 ft 258 kts 297°
2026-05-08 15:09 44.54183 10.95857 5608 ft 258 kts 297°
2026-05-08 15:09 44.55011 10.93627 5243 ft 257 kts 305°
2026-05-08 15:10 44.56267 10.91941 5098 ft 250 kts 333°
2026-05-08 15:10 44.57893 10.91185 4943 ft 246 kts 358°
2026-05-08 15:10 44.59556 10.91493 4593 ft 242 kts 24°
2026-05-08 15:10 44.61047 10.92545 4596 ft 241 kts 29°
2026-05-08 15:11 44.62387 10.93871 4593 ft 229 kts 47°
2026-05-08 15:11 44.63284 10.95604 4589 ft 213 kts 65°
2026-05-08 15:11 44.63729 10.97507 4590 ft 201 kts 82°
2026-05-08 15:11 44.63763 10.99424 4499 ft 196 kts 97°
2026-05-08 15:12 44.63415 11.01251 4277 ft 192 kts 113°
2026-05-08 15:12 44.62822 11.02930 4034 ft 192 kts 116°
2026-05-08 15:12 44.62224 11.04607 3781 ft 190 kts 115°
2026-05-08 15:12 44.61654 11.06212 3543 ft 177 kts 115°
2026-05-08 15:13 44.61121 11.07705 3309 ft 166 kts 116°
2026-05-08 15:13 44.60629 11.09085 3100 ft 150 kts 116°
2026-05-08 15:13 44.60176 11.10354 2899 ft 142 kts 115°
2026-05-08 15:13 44.59739 11.11578 2723 ft 138 kts 116°
2026-05-08 15:14 44.59310 11.12778 2549 ft 139 kts 116°
2026-05-08 15:14 44.58877 11.13990 2357 ft 138 kts 115°
2026-05-08 15:14 44.58445 11.15197 2169 ft 139 kts 116°
2026-05-08 15:14 44.58015 11.16399 1990 ft 137 kts 115°
2026-05-08 15:15 44.57591 11.17583 1807 ft 135 kts 116°
2026-05-08 15:15 44.57163 11.18780 1596 ft 138 kts 115°
2026-05-08 15:15 44.56735 11.19974 1403 ft 136 kts 114°
2026-05-08 15:15 44.56312 11.21154 1198 ft 136 kts 115°
2026-05-08 15:16 44.55893 11.22322 1009 ft 137 kts 116°
2026-05-08 15:16 44.55464 11.23517 803 ft 136 kts 116°
2026-05-08 15:16 44.55039 11.24698 629 ft 137 kts 116°
2026-05-08 15:16 44.54609 11.25896 414 ft 138 kts 116°
2026-05-08 15:17 44.54183 11.27078 243 ft 136 kts 115°
2026-05-08 15:17 44.53764 11.28248 135 ft 127 kts 116°
2026-05-08 15:17 44.53449 11.29141 133 ft 70 kts 116°
2026-05-08 15:17 44.53303 11.29536 135 ft 37 kts 129°
2026-05-08 15:18 44.53180 11.29664 135 ft 17 kts 146°
2026-05-08 15:18 44.53073 11.29763 127 ft 15 kts 146°
2026-05-08 15:18 44.53034 11.29767 130 ft 2 kts 232°
2026-05-08 15:18 44.53035 11.29736 130 ft 5 kts 287°
2026-05-08 15:19 44.53057 11.29671 132 ft 9 kts 297°
2026-05-08 15:19 44.53091 11.29577 134 ft 12 kts 297°
2026-05-08 15:19 44.53116 11.29509 135 ft 6 kts 297°
2026-05-08 15:19 44.53144 11.29434 135 ft 11 kts 297°
2026-05-08 15:20 44.53180 11.29334 136 ft 14 kts 296°
2026-05-08 15:20 44.53206 11.29231 137 ft 9 kts 260°
2026-05-08 15:20 44.53160 11.29178 135 ft 9 kts 207°
2026-05-08 15:20 44.53102 11.29137 134 ft 9 kts 207°
2026-05-08 15:21 44.53045 11.29096 133 ft 8 kts 207°
2026-05-08 15:21 44.53004 11.29104 133 ft 5 kts 96°
2026-05-08 15:21 44.52982 11.29150 132 ft 6 kts 129°
2026-05-08 15:21 44.52980 11.29156 132 ft 0 kts 121°